Weather Roundup
Issued by NWS

Home | Current Version | Previous Version | Text Only | Print | Product List | Glossary On
Versions: 1 2 3 4 5 6 7 8 9 10 11 12 13 14 15 16 17 18 19 20 21 22 23 24 25 26 27 28 29 30 31 32 33 34 35 36 37 38 39 40 41 42 43 44 45 46 47 48 49 50
774
NZUS93 KARX 240159
HRRWXR

CURRENT HOURLY OBSERVATIONS ACROSS
MUCH OF THE UPPER MISSISSIPPI VALLEY
NATIONAL WEATHER SERVICE LA CROSSE WI
900 PM CDT TUE AUG 23 2016


...SOUTHEAST MINNESOTA...


CITY           SKY/WX    TMP DP  RH WIND       PRES   REMARKS
ROCHESTER      TSTM      68  67  96 S12       29.93R FOG
ROCHESTER/MAYO CLOUDY    69  69 100 S10       29.93R
WINONA         RAIN      70  64  83 SE7       29.90S
AUSTIN         TSTM      64  61  88 CALM      29.94R
ALBERT LEA     CLOUDY    66  64  94 CALM      29.92R
DODGE CENTER   HVY RAIN  66  64  94 W3G23     29.96R
PRESTON        TSTM      67  64  90 SE17G28   29.90S
OWATONNA       TSTM      70  66  88 SE10      29.90F
FARIBAULT      CLOUDY    66  66 100 SE15G22   29.89F
$$

...ELSEWHERE IN MINNESOTA...


CITY           SKY/WX    TMP DP  RH WIND       PRES   REMARKS
MINNEAPOLIS    LGT RAIN  70  66  87 SE12      29.85R
INTNL FALLS    CLEAR     76  67  73 VRB3      29.77R
DULUTH         CLOUDY    74  67  78 S14       29.89R
RED WING       CLOUDY    72  66  83 SE5       29.88R
REDWOOD FALLS  LGT RAIN  66  63  90 SE5       29.82R
MANKATO        CLOUDY    66  63  88 SE16      29.84F
WORTHINGTON    CLOUDY    70  69  97 SE12      29.82S
FAIRMONT         N/A    N/A N/A N/A MISG        N/A
$$

...SOUTHWEST WISCONSIN...


CITY           SKY/WX    TMP DP  RH WIND       PRES   REMARKS
LA CROSSE      LGT RAIN  77  72  84 S15G23    29.93F
PRAIRIE DU CHI CLOUDY    75  64  70 SE9       29.96S
BOSCOBEL       CLOUDY    76  66  71 VRB3      29.98F
LONE ROCK      NOT AVBL
PLATTEVILLE    CLOUDY    73  68  84 SE10      30.02S
FORT MC COY    CLOUDY    73  65  74 S9        29.97F
MAUSTON-NEW LI CLOUDY    71  64  80 SE3       30.00S
VIROQUA        CLOUDY    72  65  79 SE9       29.99F
WIS DELLS      NOT AVBL
$$

...ELSEWHERE IN WISCONSIN...


CITY           SKY/WX    TMP DP  RH WIND       PRES   REMARKS
MILWAUKEE      PTCLDY    74  59  59 S8        30.09S
MADISON        CLOUDY    75  63  66 S13G21    30.04S
GREEN BAY      CLEAR     67  64  90 SE8       30.05S
EAU CLAIRE     NOT AVBL
BLACK RVR FLS  FAIR      72  62  71 SE5       29.96F
MEDFORD        PTCLDY    67  65  93 SE6       29.99F
WAUSAU         PTCLDY    69  62  78 SE7       30.00S
WIS RAPIDS     CLOUDY    71  63  75 S7        30.02F
MARSHFIELD     CLOUDY    70  61  73 SE7       29.99F
RICE LAKE      CLOUDY    73  64  74 SE8       29.93S
$$

...NORTHEAST IOWA...


CITY           SKY/WX    TMP DP  RH WIND       PRES   REMARKS
WATERLOO       CLOUDY    74  69  85 S15G22    29.90F
DUBUQUE        CLOUDY    72  67  84 S14       30.01S
DECORAH        HVY RAIN  66  66 100 SW9G23    29.96F
MASON CITY     LGT RAIN  66  65  96 SE9       29.91S
CHARLES CITY   CLOUDY    66  66 100 E8        29.92F
OELWEIN        CLOUDY    73  70  88 S16       29.94F
$$

...ELSEWHERE IN IOWA...


CITY           SKY/WX    TMP DP  RH WIND       PRES   REMARKS
DES MOINES     MOCLDY    78  72  81 S15       29.89R
IOWA CITY      CLOUDY    73  70  90 SE13      29.99R
FORT DODGE     CLOUDY    75  70  83 S9        29.87S
MARSHALLTOWN   CLOUDY    75  72  90 S15       29.90S
CEDAR RAPIDS   CLOUDY    73  72  96 SE13G22   29.96S
$$

...NORTHERN ILLINOIS...


CITY           SKY/WX    TMP DP  RH WIND       PRES   REMARKS
CHICAGO-OHARE  MOCLDY    75  61  61 S12       30.10F
CHICAGO-MIDWAY CLOUDY    78  61  55 S12G21    30.11F
MOLINE         CLOUDY    74  68  81 S13       30.02F
ROCKFORD       CLOUDY    73  65  75 S12       30.07F
PEORIA         CLOUDY    74  68  81 S12       30.08S
$$

NOTE: "FAIR" INDICATES FEW OR NO CLOUDS BELOW 12,000 FEET WITH NO
SIGNIFICANT WEATHER AND/OR OBSTRUCTIONS TO VISIBILITY. WIND
SPEEDS ARE IN MILES-PER-HOUR.




USA.gov is the U.S. government's official web portal to all federal, state and local government web resources and services.